Location: Vinland
(47.7731°N, 122.6974°W)
Time: 14:33:17
(UTC+00:00)

Altair - Visible Passes

Search period start: 30 March 2023 00:00
Search period end: 09 April 2023 00:00
Orbit: 1501 x 1682 km, 47.2° (Epoch: 29 March)

Date Brightness Start Highest point End Pass type
(mag) Time Alt. Az. Time Alt. Az. Time Alt. Az.
30 Mar 9.4 09:54:09 10° SE 09:56:04 11° ESE 09:58:30 10° ESE visible
30 Mar 8.3 11:52:10 17° SSW 11:58:45 40° SE 12:07:08 10° ENE visible
31 Mar 8.3 11:28:25 22° S 11:33:39 38° SE 11:41:55 10° ENE visible
01 Apr 8.4 11:04:36 26° S 11:08:34 35° SE 11:16:41 10° ENE visible
01 Apr 7.6 13:02:55 10° WSW 13:12:21 73° SSE 13:21:31 10° ENE visible
02 Apr 8.4 10:40:43 28° SSE 10:43:29 33° SE 10:51:27 10° ENE visible
02 Apr 7.6 12:38:44 14° WSW 12:47:12 71° SSE 12:56:21 10° ENE visible
03 Apr 8.4 10:16:48 29° SSE 10:18:24 31° SE 10:26:10 10° E visible
03 Apr 7.6 12:14:48 19° SW 12:22:02 68° SSE 12:31:11 10° ENE visible
04 Apr 8.5 09:52:50 28° SE 09:53:20 28° SE 10:00:54 10° E visible
04 Apr 7.6 11:50:49 25° SW 11:56:52 65° SSE 12:06:01 10° ENE visible
05 Apr 8.6 09:28:49 26° SE 09:28:49 26° SE 09:35:36 10° E visible
05 Apr 7.6 11:26:49 31° SW 11:31:43 63° SSE 11:40:51 10° ENE visible
06 Apr 8.7 09:04:45 23° ESE 09:04:45 23° ESE 09:10:15 10° E visible
06 Apr 7.6 11:02:45 38° SSW 11:06:34 60° SSE 11:15:40 10° ENE visible
06 Apr 7.6 13:01:28 10° W 13:11:02 87° S 13:20:18 10° E visible
07 Apr 8.9 08:40:39 20° ESE 08:40:39 20° ESE 08:44:53 10° E visible
07 Apr 7.6 10:38:39 44° SSW 10:41:26 57° SSE 10:50:30 10° ENE visible
07 Apr 7.5 12:36:38 11° W 12:45:51 86° S 12:55:07 10° E visible
08 Apr 9.1 08:16:32 17° ESE 08:16:32 17° ESE 08:19:28 10° E visible
08 Apr 7.6 10:14:31 49° S 10:16:17 54° SSE 10:25:19 10° ENE visible
08 Apr 7.5 12:12:30 16° WSW 12:20:39 85° S 12:29:56 10° E visible
